This is the latest recevied weather packets stored in our database for station/object YT1XN-8. If no packets are shown the sender has not sent any weather packets the latest 10 day(s).
| Time | Temp. | Humidity | Pressure | Rain* | Wind** | Luminosity | Snow |
|---|---|---|---|---|---|---|---|
| 1777891842 | 23.33° C | 44% | 1020 hPa | 0 mm | - | - | - |
| 1777891242 | 22.22° C | 44% | 1020.1 hPa | 0 mm | - | - | - |
| 1777890644 | 22.22° C | 43% | 1020.3 hPa | 0 mm | - | - | - |
| 1777890582 | 22.22° C | 45% | 1020.4 hPa | 0 mm | - | - | - |
| 1777890043 | 22.22° C | 41% | 1020.4 hPa | 0 mm | - | - | - |
| 1777889922 | 22.22° C | 43% | 1020.4 hPa | 0 mm | - | - | - |
| 1777889262 | 22.22° C | 43% | 1020.5 hPa | 0 mm | - | - | - |
| 1777888843 | 21.67° C | 46% | 1020.5 hPa | 0 mm | - | - | - |
| 1777888602 | 21.67° C | 44% | 1020.6 hPa | 0 mm | - | - | - |
| 1777888243 | 21.67° C | 46% | 1020.6 hPa | 0 mm | - | - | - |
| 1777887942 | 22.22° C | 44% | 1020.7 hPa | 0 mm | - | - | - |
| 1777887643 | 21.67° C | 44% | 1020.7 hPa | 0 mm | - | - | - |
| 1777887282 | 21.67° C | 43% | 1020.8 hPa | 0 mm | - | - | - |
| 1777887043 | 21.67° C | 48% | 1020.9 hPa | 0 mm | - | - | - |
| 1777886622 | 21.11° C | 44% | 1020.9 hPa | 0 mm | - | - | - |
| 1777886443 | 21.11° C | 46% | 1020.9 hPa | 0 mm | - | - | - |
| 1777885962 | 21.11° C | 44% | 1020.9 hPa | 0 mm | - | - | - |
| 1777885843 | 21.67° C | 47% | 1020.9 hPa | 0 mm | - | - | - |
| 1777885302 | 21.11° C | 46% | 1021 hPa | 0 mm | - | - | - |
| 1777885243 | 21.11° C | 47% | 1021 hPa | 0 mm | - | - | - |
| 1777884642 | 20.56° C | 46% | 1021 hPa | 0 mm | - | - | - |
| 1777884043 | 20.56° C | 45% | 1021 hPa | 0 mm | - | - | - |
| 1777883982 | 20.56° C | 47% | 1021 hPa | 0 mm | - | - | - |
| 1777883443 | 20.56° C | 46% | 1021 hPa | 0 mm | - | - | - |
| 1777883322 | 20.56° C | 46% | 1021 hPa | 0 mm | - | - | - |
* Rain latest hour (hover to see other rain measurements)
** Current wind speed in m/s (hover to see current wind gust speed)